Weather in Krasnogvardejskoye

Russia / Republic of Crimea     45˚29′41″N   34˚17′40″E
temp.,
°C
wind,
m/s
gust,
m/s
humid.,
%
clouds,
%
prec.,
mm/h
press.,
hPa
HPBL,
m
29 november, sun
sun2900:00+7˚s1284100 0.0 102022
03:00+6˚sse228483 0.0 101922
06:00+6˚sse228270 0.0 101922
09:00+7˚se237883 0.0 102038
12:00+11˚ese226398 0.0 1020210
15:00+12˚ssw135399 0.0 1020504
18:00+10˚se2361100 0.0 102027
21:00+8˚ese3470100 0.0 102143
30 november, mon
mon3000:00+7˚se2274100 0.0 102122
03:00+7˚ese1163100 0.0 102022
06:00+7˚e2263100 0.0 102022
09:00+6˚e3484100 0.0 102077
12:00+10˚e5761100 0.0 1020305
15:00+10˚ene5861100 0.0 1019359
18:00+6˚e51085100 0.0 1019328
21:00+6˚ene4992100 0.0 1019263
1 december, tue
tue100:00+5˚ene4894100 0.0 1018187
03:00+5˚ene4894100 0.0 1018203
06:00+5˚ne499394 0.0 1018237
09:00+6˚ene598497 0.0 1019535
12:00+7˚ene6874100 0.0 1019814
15:00+7˚ene6873100 0.0 1019875
18:00+6˚ene5875100 0.0 1019805
21:00+6˚ene4776100 0.0 1020616
2 december, wed
wed200:00+5˚ne258394 0.0 1020196
03:00+4˚n349377 0.0 102184
06:00+3˚nnw239261 0.0 102142
09:00+3˚wnw019251 0.0 102122
12:00+8˚ene127260 0.0 1022367
15:00+10˚ne116748 0.0 1021662
18:00+7˚ene338535 0.0 1022100
21:00+6˚e229240 0.0 102337
3 december, thu
thu300:00+5˚nne009356 0.0 102322
03:00+4˚nw229428 0.0 102422
06:00+3˚nnw22940 0.0 102423
09:00+4˚ne23976 0.0 102447
12:00+7˚ene348069 0.0 1024493
15:00+8˚ene457684 0.0 1023550
18:00+6˚ene468499 0.0 1023440
21:00+6˚ene468599 0.0 1023422